Terug naar catalogus

FENGYUN 1C DEB

ActiefSSO
NORAD 30442·DEBRIS·🇨🇳 China

Gelanceerd May 10, 1999 vanaf Taiyuan Satellite Launch Center

Loading…

Volgende Passages (komende 24 uur)

TLE

VersSource: Space-Track

Epoch: Sep 13, 2026, 12:22 UTC

1 30442U 99025AFD 26256.51535233  .00003270  00000-0  12376-2 0  9999
2 30442  98.8673   0.1276 0054540 206.4532 153.3864 14.31078502 10880

Volg FENGYUN 1C DEB in realtime met AllMySat

Download on the App Store